カタログに戻る

USA 157

運用中軍事GEO
NORAD 26715·PAYLOAD·🇺🇸 United States

打ち上げ Feb 27, 2001 から Cape Canaveral Space Force Station

Loading…

TLE

最新Source: Space-Track

元期: Sep 14, 2026, 13:18 UTC

1 26715U 01009A   26257.55454194  .00000103  00000-0  00000-0 0  9994
2 26715  11.6414  19.1890 0042502 180.4394 203.5787  1.00277947 33847

AllMySatでUSA 157をリアルタイム追跡

Download on the App Store